Time,TemperatureF,DewpointF,PressureIn,WindDirection,WindDirectionDegrees,WindSpeedMPH,WindSpeedGustMPH,Humidity,HourlyPrecipIn,Conditions,Clouds,dailyrainin,SoftwareType,DateUTC
2013-01-26 00:03:00,59.0,-99.9,30.20,SSW,201,4.0,5.0,-999,-99.99,,,-99.99,,2013-01-26 06:03:00,
2013-01-26 00:12:00,58.0,-99.9,30.19,South,180,4.0,5.0,-999,-99.99,,,-99.99,,2013-01-26 06:12:00,
2013-01-26 00:21:00,58.0,-99.9,30.19,South,188,4.0,5.0,-999,-99.99,,,-99.99,,2013-01-26 06:21:00,
2013-01-26 00:32:00,59.0,-99.9,30.19,SSW,200,4.0,7.0,-999,-99.99,,,-99.99,,2013-01-26 06:32:00,
2013-01-26 00:42:00,59.0,-99.9,30.19,SSW,212,5.0,7.0,-999,-99.99,,,-99.99,,2013-01-26 06:42:00,
2013-01-26 00:52:00,60.0,-99.9,30.19,SW,214,6.0,7.0,-999,-99.99,,,-99.99,,2013-01-26 06:52:00,
2013-01-26 01:02:00,60.0,-99.9,30.19,SW,216,5.0,6.0,-999,-99.99,,,-99.99,,2013-01-26 07:02:00,
2013-01-26 01:12:00,60.0,-99.9,30.19,WSW,239,3.0,5.0,-999,-99.99,,,-99.99,,2013-01-26 07:12:00,
2013-01-26 01:22:00,60.0,-99.9,30.19,WSW,245,6.0,8.0,-999,-99.99,,,-99.99,,2013-01-26 07:22:00,
2013-01-26 01:33:00,60.0,-99.9,30.19,WSW,241,6.0,9.0,-999,-99.99,,,-99.99,,2013-01-26 07:33:00,
2013-01-26 01:42:00,60.0,-99.9,30.19,WSW,247,5.0,6.0,-999,-99.99,,,-99.99,,2013-01-26 07:42:00,
2013-01-26 01:52:00,59.0,-99.9,30.19,WSW,258,4.0,5.0,-999,-99.99,,,-99.99,,2013-01-26 07:52:00,
2013-01-26 02:02:00,58.0,-99.9,30.19,WSW,250,4.0,8.0,-999,-99.99,,,-99.99,,2013-01-26 08:02:00,
2013-01-26 02:11:00,59.0,-99.9,30.18,WSW,244,5.0,8.0,-999,-99.99,,,-99.99,,2013-01-26 08:11:00,
2013-01-26 02:22:00,60.0,-99.9,30.18,WSW,243,5.0,8.0,-999,-99.99,,,-99.99,,2013-01-26 08:22:00,
2013-01-26 02:32:00,59.0,-99.9,30.18,WSW,244,6.0,8.0,-999,-99.99,,,-99.99,,2013-01-26 08:32:00,
2013-01-26 02:42:00,60.0,-99.9,30.18,WSW,242,7.0,12.0,-999,-99.99,,,-99.99,,2013-01-26 08:42:00,
2013-01-26 02:54:00,61.0,-99.9,30.18,WSW,237,9.0,12.0,-999,-99.99,,,-99.99,,2013-01-26 08:54:00,
2013-01-26 03:02:00,61.0,-99.9,30.18,WSW,237,8.0,12.0,-999,-99.99,,,-99.99,,2013-01-26 09:02:00,
2013-01-26 03:11:00,60.0,-99.9,30.18,WSW,239,8.0,12.0,-999,-99.99,,,-99.99,,2013-01-26 09:11:00,
2013-01-26 03:22:00,58.0,-99.9,30.18,WNW,296,4.0,6.0,-999,-99.99,,,-99.99,,2013-01-26 09:22:00,
2013-01-26 03:32:00,57.0,-99.9,30.18,NNW,329,4.0,5.0,-999,-99.99,,,-99.99,,2013-01-26 09:32:00,
2013-01-26 03:42:00,57.0,-99.9,30.18,NW,323,3.0,4.0,-999,-99.99,,,-99.99,,2013-01-26 09:42:00,
2013-01-26 03:52:00,58.0,-99.9,30.18,NW,319,1.0,2.0,-999,-99.99,,,-99.99,,2013-01-26 09:52:00,
2013-01-26 04:02:00,58.0,-99.9,30.18,NW,318,2.0,2.0,-999,-99.99,,,-99.99,,2013-01-26 10:02:00,
2013-01-26 04:12:00,58.0,-99.9,30.19,NW,325,2.0,3.0,-999,-99.99,,,-99.99,,2013-01-26 10:12:00,
2013-01-26 04:21:00,57.0,-99.9,30.19,NNE,12,2.0,3.0,-999,-99.99,,,-99.99,,2013-01-26 10:21:00,
2013-01-26 04:32:00,57.0,-99.9,30.19,North,360,3.0,4.0,-999,-99.99,,,-99.99,,2013-01-26 10:32:00,
2013-01-26 04:43:00,57.0,-99.9,30.19,NNW,330,0.0,1.0,-999,-99.99,,,-99.99,,2013-01-26 10:43:00,
2013-01-26 04:52:00,57.0,-99.9,30.19,NW,313,1.0,2.0,-999,-99.99,,,-99.99,,2013-01-26 10:52:00,
2013-01-26 05:02:00,57.0,-99.9,30.19,WNW,283,1.0,1.0,-999,-99.99,,,-99.99,,2013-01-26 11:02:00,
2013-01-26 05:12:00,58.0,-99.9,30.19,SW,228,1.0,2.0,-999,-99.99,,,-99.99,,2013-01-26 11:12:00,
2013-01-26 05:22:00,58.0,-99.9,30.19,WSW,244,2.0,3.0,-999,-99.99,,,-99.99,,2013-01-26 11:22:00,
2013-01-26 05:32:00,58.0,-99.9,30.19,WSW,252,2.0,3.0,-999,-99.99,,,-99.99,,2013-01-26 11:32:00,
2013-01-26 05:42:00,58.0,-99.9,30.19,West,266,2.0,4.0,-999,-99.99,,,-99.99,,2013-01-26 11:42:00,
2013-01-26 05:52:00,58.0,-99.9,30.19,West,269,2.0,3.0,-999,-99.99,,,-99.99,,2013-01-26 11:52:00,
2013-01-26 06:02:00,58.0,-99.9,30.19,West,266,1.0,2.0,-999,-99.99,,,-99.99,,2013-01-26 12:02:00,
2013-01-26 06:12:00,58.0,-99.9,30.20,NW,308,2.0,2.0,-999,-99.99,,,-99.99,,2013-01-26 12:12:00,
2013-01-26 06:23:00,58.0,-99.9,30.20,NW,305,2.0,2.0,-999,-99.99,,,-99.99,,2013-01-26 12:23:00,
2013-01-26 06:33:00,58.0,-99.9,30.20,NW,305,2.0,2.0,-999,-99.99,,,-99.99,,2013-01-26 12:33:00,
2013-01-26 06:42:00,57.0,-99.9,30.21,NNW,336,1.0,2.0,-999,-99.99,,,-99.99,,2013-01-26 12:42:00,
2013-01-26 06:53:00,57.0,-99.9,30.21,NNW,343,1.0,1.0,-999,-99.99,,,-99.99,,2013-01-26 12:53:00,
2013-01-26 07:04:00,57.0,-99.9,30.21,NNW,343,0.0,1.0,-999,-99.99,,,-99.99,,2013-01-26 13:04:00,
2013-01-26 07:12:00,57.0,-99.9,30.22,North,-999,-999.0,-999.0,-999,-99.99,,,-99.99,,2013-01-26 13:12:00,
2013-01-26 07:22:00,57.0,-99.9,30.22,North,-999,-999.0,-999.0,-999,-99.99,,,-99.99,,2013-01-26 13:22:00,
2013-01-26 07:33:00,57.0,-99.9,30.22,North,-999,-999.0,-999.0,-999,-99.99,,,-99.99,,2013-01-26 13:33:00,
2013-01-26 07:42:00,57.0,-99.9,30.22,North,-999,-999.0,-999.0,-999,-99.99,,,-99.99,,2013-01-26 13:42:00,
2013-01-26 07:53:00,56.0,-99.9,30.22,North,358,3.0,4.0,-999,-99.99,,,-99.99,,2013-01-26 13:53:00,
2013-01-26 08:03:00,57.0,-99.9,30.23,NNW,344,2.0,2.0,-999,-99.99,,,-99.99,,2013-01-26 14:03:00,
2013-01-26 08:12:00,59.0,-99.9,30.23,NNW,342,0.0,1.0,-999,-99.99,,,-99.99,,2013-01-26 14:12:00,
2013-01-26 08:22:00,59.0,-99.9,30.23,North,-999,-999.0,-999.0,-999,-99.99,,,-99.99,,2013-01-26 14:22:00,
2013-01-26 08:32:00,60.0,-99.9,30.23,NNE,27,2.0,3.0,-999,-99.99,,,-99.99,,2013-01-26 14:32:00,
2013-01-26 08:43:00,61.0,-99.9,30.24,NNW,344,0.0,1.0,-999,-99.99,,,-99.99,,2013-01-26 14:43:00,
2013-01-26 08:53:00,63.0,-99.9,30.24,WNW,292,2.0,3.0,-999,-99.99,,,-99.99,,2013-01-26 14:53:00,
2013-01-26 09:03:00,63.0,-99.9,30.24,West,275,2.0,2.0,-999,-99.99,,,-99.99,,2013-01-26 15:03:00,
2013-01-26 09:12:00,63.0,-99.9,30.24,West,280,5.0,6.0,-999,-99.99,,,-99.99,,2013-01-26 15:12:00,
2013-01-26 09:22:00,63.0,-99.9,30.24,West,281,4.0,5.0,-999,-99.99,,,-99.99,,2013-01-26 15:22:00,
2013-01-26 09:33:00,64.0,-99.9,30.24,West,269,3.0,4.0,-999,-99.99,,,-99.99,,2013-01-26 15:33:00,
2013-01-26 09:43:00,65.0,-99.9,30.25,West,279,3.0,4.0,-999,-99.99,,,-99.99,,2013-01-26 15:43:00,
2013-01-26 09:53:00,65.0,-99.9,30.25,West,262,3.0,4.0,-999,-99.99,,,-99.99,,2013-01-26 15:53:00,
2013-01-26 10:03:00,65.0,-99.9,30.25,WSW,254,3.0,4.0,-999,-99.99,,,-99.99,,2013-01-26 16:03:00,
2013-01-26 10:13:00,66.0,-99.9,30.25,West,262,4.0,6.0,-999,-99.99,,,-99.99,,2013-01-26 16:13:00,
2013-01-26 10:22:00,62.0,-99.9,30.25,South,173,5.0,6.0,-999,-99.99,,,-99.99,,2013-01-26 16:22:00,
2013-01-26 10:33:00,62.0,-99.9,30.25,South,174,6.0,6.0,-999,-99.99,,,-99.99,,2013-01-26 16:33:00,
2013-01-26 10:43:00,60.0,-99.9,30.25,South,178,5.0,7.0,-999,-99.99,,,-99.99,,2013-01-26 16:43:00,
2013-01-26 10:53:00,61.0,-99.9,30.25,South,189,4.0,5.0,-999,-99.99,,,-99.99,,2013-01-26 16:53:00,
2013-01-26 11:03:00,63.0,-99.9,30.25,South,189,4.0,5.0,-999,-99.99,,,-99.99,,2013-01-26 17:03:00,
2013-01-26 11:13:00,63.0,-99.9,30.25,SSW,193,6.0,9.0,-999,-99.99,,,-99.99,,2013-01-26 17:13:00,
2013-01-26 11:23:00,66.0,-99.9,30.25,SSW,210,8.0,11.0,-999,-99.99,,,-99.99,,2013-01-26 17:23:00,
2013-01-26 11:33:00,66.0,-99.9,30.25,SSW,213,6.0,10.0,-999,-99.99,,,-99.99,,2013-01-26 17:33:00,
2013-01-26 11:42:00,66.0,-99.9,30.24,SW,222,5.0,9.0,-999,-99.99,,,-99.99,,2013-01-26 17:42:00,
2013-01-26 11:53:00,66.0,-99.9,30.24,SSW,209,7.0,10.0,-999,-99.99,,,-99.99,,2013-01-26 17:53:00,
2013-01-26 12:03:00,66.0,-99.9,30.24,SW,215,7.0,11.0,-999,-99.99,,,-99.99,,2013-01-26 18:03:00,
2013-01-26 12:12:00,65.0,-99.9,30.23,SSW,206,7.0,11.0,-999,-99.99,,,-99.99,,2013-01-26 18:12:00,
2013-01-26 12:22:00,67.0,-99.9,30.23,SSW,212,7.0,10.0,-999,-99.99,,,-99.99,,2013-01-26 18:22:00,
2013-01-26 12:33:00,65.0,-99.9,30.22,SSW,201,6.0,10.0,-999,-99.99,,,-99.99,,2013-01-26 18:33:00,
2013-01-26 12:42:00,65.0,-99.9,30.22,South,186,7.0,9.0,-999,-99.99,,,-99.99,,2013-01-26 18:42:00,
2013-01-26 12:53:00,64.0,-99.9,30.22,South,184,6.0,9.0,-999,-99.99,,,-99.99,,2013-01-26 18:53:00,
2013-01-26 13:03:00,63.0,-99.9,30.22,SSE,162,7.0,8.0,-999,-99.99,,,-99.99,,2013-01-26 19:03:00,
2013-01-26 13:12:00,62.0,-99.9,30.21,South,174,7.0,9.0,-999,-99.99,,,-99.99,,2013-01-26 19:12:00,
2013-01-26 13:23:00,63.0,-99.9,30.20,South,172,8.0,10.0,-999,-99.99,,,-99.99,,2013-01-26 19:23:00,
2013-01-26 13:33:00,62.0,-99.9,30.20,SSE,168,9.0,10.0,-999,-99.99,,,-99.99,,2013-01-26 19:33:00,
2013-01-26 13:43:00,63.0,-99.9,30.20,South,190,5.0,9.0,-999,-99.99,,,-99.99,,2013-01-26 19:43:00,
2013-01-26 13:53:00,68.0,-99.9,30.20,SSW,213,7.0,10.0,-999,-99.99,,,-99.99,,2013-01-26 19:53:00,
2013-01-26 14:02:00,68.0,-99.9,30.20,SW,227,7.0,9.0,-999,-99.99,,,-99.99,,2013-01-26 20:02:00,
2013-01-26 14:12:00,69.0,-99.9,30.20,SW,230,7.0,9.0,-999,-99.99,,,-99.99,,2013-01-26 20:12:00,
2013-01-26 14:22:00,69.0,-99.9,30.20,SW,221,8.0,13.0,-999,-99.99,,,-99.99,,2013-01-26 20:22:00,
2013-01-26 14:32:00,68.0,-99.9,30.20,SW,226,8.0,11.0,-999,-99.99,,,-99.99,,2013-01-26 20:32:00,
2013-01-26 14:42:00,69.0,-99.9,30.20,SSW,213,7.0,9.0,-999,-99.99,,,-99.99,,2013-01-26 20:42:00,
2013-01-26 14:52:00,68.0,-99.9,30.19,SSW,211,8.0,11.0,-999,-99.99,,,-99.99,,2013-01-26 20:52:00,
2013-01-26 15:03:00,68.0,-99.9,30.19,SW,218,8.0,10.0,-999,-99.99,,,-99.99,,2013-01-26 21:03:00,
2013-01-26 15:12:00,68.0,-99.9,30.19,SW,215,6.0,10.0,-999,-99.99,,,-99.99,,2013-01-26 21:12:00,
2013-01-26 15:23:00,67.0,-99.9,30.19,SSW,198,6.0,8.0,-999,-99.99,,,-99.99,,2013-01-26 21:23:00,
2013-01-26 15:32:00,66.0,-99.9,30.19,South,183,4.0,7.0,-999,-99.99,,,-99.99,,2013-01-26 21:32:00,
2013-01-26 15:43:00,64.0,-99.9,30.19,South,177,5.0,6.0,-999,-99.99,,,-99.99,,2013-01-26 21:43:00,
2013-01-26 15:52:00,65.0,-99.9,30.19,SSW,192,4.0,5.0,-999,-99.99,,,-99.99,,2013-01-26 21:52:00,
2013-01-26 16:02:00,67.0,-99.9,30.19,SSW,212,5.0,8.0,-999,-99.99,,,-99.99,,2013-01-26 22:02:00,
2013-01-26 16:12:00,68.0,-99.9,30.19,SW,228,5.0,7.0,-999,-99.99,,,-99.99,,2013-01-26 22:12:00,
2013-01-26 16:22:00,67.0,-99.9,30.19,SW,214,6.0,8.0,-999,-99.99,,,-99.99,,2013-01-26 22:22:00,
2013-01-26 16:32:00,67.0,-99.9,30.19,SW,227,5.0,6.0,-999,-99.99,,,-99.99,,2013-01-26 22:32:00,
2013-01-26 16:42:00,67.0,-99.9,30.19,SW,224,3.0,5.0,-999,-99.99,,,-99.99,,2013-01-26 22:42:00,
2013-01-26 16:52:00,65.0,-99.9,30.19,SSW,195,4.0,6.0,-999,-99.99,,,-99.99,,2013-01-26 22:52:00,
2013-01-26 17:02:00,64.0,-99.9,30.19,South,186,5.0,6.0,-999,-99.99,,,-99.99,,2013-01-26 23:02:00,
2013-01-26 17:12:00,62.0,-99.9,30.19,South,171,5.0,5.0,-999,-99.99,,,-99.99,,2013-01-26 23:12:00,
2013-01-26 17:22:00,62.0,-99.9,30.20,SSE,163,4.0,4.0,-999,-99.99,,,-99.99,,2013-01-26 23:22:00,
2013-01-26 17:33:00,62.0,-99.9,30.20,SSE,165,4.0,5.0,-999,-99.99,,,-99.99,,2013-01-26 23:33:00,
2013-01-26 17:42:00,62.0,-99.9,30.20,SSE,159,6.0,7.0,-999,-99.99,,,-99.99,,2013-01-26 23:42:00,
2013-01-26 17:52:00,62.0,-99.9,30.20,South,177,4.0,5.0,-999,-99.99,,,-99.99,,2013-01-26 23:52:00,
2013-01-26 18:02:00,62.0,-99.9,30.20,South,191,4.0,5.0,-999,-99.99,,,-99.99,,2013-01-27 00:02:00,
2013-01-26 18:12:00,62.0,-99.9,30.20,SSW,199,2.0,3.0,-999,-99.99,,,-99.99,,2013-01-27 00:12:00,
2013-01-26 18:22:00,62.0,-99.9,30.20,SE,145,3.0,3.0,-999,-99.99,,,-99.99,,2013-01-27 00:22:00,
2013-01-26 18:32:00,62.0,-99.9,30.20,SE,131,3.0,3.0,-999,-99.99,,,-99.99,,2013-01-27 00:32:00,
2013-01-26 18:42:00,62.0,-99.9,30.20,SSE,147,2.0,2.0,-999,-99.99,,,-99.99,,2013-01-27 00:42:00,
2013-01-26 18:52:00,62.0,-99.9,30.21,SSE,168,2.0,3.0,-999,-99.99,,,-99.99,,2013-01-27 00:52:00,
2013-01-26 19:02:00,62.0,-99.9,30.21,South,190,1.0,2.0,-999,-99.99,,,-99.99,,2013-01-27 01:02:00,
2013-01-26 19:11:00,62.0,-99.9,30.21,SSW,212,1.0,1.0,-999,-99.99,,,-99.99,,2013-01-27 01:11:00,
2013-01-26 19:22:00,63.0,-99.9,30.21,SW,235,2.0,3.0,-999,-99.99,,,-99.99,,2013-01-27 01:22:00,
2013-01-26 19:32:00,64.0,-99.9,30.20,SW,225,3.0,4.0,-999,-99.99,,,-99.99,,2013-01-27 01:32:00,
2013-01-26 19:42:00,64.0,-99.9,30.21,WSW,238,1.0,2.0,-999,-99.99,,,-99.99,,2013-01-27 01:42:00,
2013-01-26 19:52:00,62.0,-99.9,30.21,North,-999,-999.0,-999.0,-999,-99.99,,,-99.99,,2013-01-27 01:52:00,
2013-01-26 20:02:00,62.0,-99.9,30.21,NW,319,1.0,2.0,-999,-99.99,,,-99.99,,2013-01-27 02:02:00,
2013-01-26 20:12:00,63.0,-99.9,30.21,West,272,2.0,2.0,-999,-99.99,,,-99.99,,2013-01-27 02:12:00,
2013-01-26 20:22:00,61.0,-99.9,30.21,WSW,254,1.0,2.0,-999,-99.99,,,-99.99,,2013-01-27 02:22:00,
2013-01-26 20:32:00,61.0,-99.9,30.22,SSW,208,0.0,1.0,-999,-99.99,,,-99.99,,2013-01-27 02:32:00,
2013-01-26 20:42:00,60.0,-99.9,30.22,SSE,154,3.0,4.0,-999,-99.99,,,-99.99,,2013-01-27 02:42:00,
2013-01-26 20:52:00,60.0,-99.9,30.22,SSE,158,3.0,3.0,-999,-99.99,,,-99.99,,2013-01-27 02:52:00,
2013-01-26 21:02:00,60.0,-99.9,30.22,South,174,3.0,3.0,-999,-99.99,,,-99.99,,2013-01-27 03:02:00,
2013-01-26 21:12:00,60.0,-99.9,30.22,South,176,3.0,4.0,-999,-99.99,,,-99.99,,2013-01-27 03:12:00,
2013-01-26 21:22:00,61.0,-99.9,30.22,SE,138,3.0,4.0,-999,-99.99,,,-99.99,,2013-01-27 03:22:00,
2013-01-26 21:32:00,60.0,-99.9,30.22,North,5,6.0,7.0,-999,-99.99,,,-99.99,,2013-01-27 03:32:00,
2013-01-26 21:42:00,61.0,-99.9,30.22,NE,43,4.0,5.0,-999,-99.99,,,-99.99,,2013-01-27 03:42:00,
2013-01-26 21:52:00,61.0,-99.9,30.23,NE,53,3.0,6.0,-999,-99.99,,,-99.99,,2013-01-27 03:52:00,
2013-01-26 22:02:00,61.0,-99.9,30.23,NNE,32,4.0,4.0,-999,-99.99,,,-99.99,,2013-01-27 04:02:00,
2013-01-26 22:12:00,61.0,-99.9,30.24,ENE,72,2.0,4.0,-999,-99.99,,,-99.99,,2013-01-27 04:12:00,
2013-01-26 22:22:00,61.0,-99.9,30.24,ENE,64,2.0,4.0,-999,-99.99,,,-99.99,,2013-01-27 04:22:00,
2013-01-26 22:32:00,61.0,-99.9,30.24,NE,50,1.0,2.0,-999,-99.99,,,-99.99,,2013-01-27 04:32:00,
2013-01-26 22:42:00,61.0,-99.9,30.24,NNE,21,-999.0,1.0,-999,-99.99,,,-99.99,,2013-01-27 04:42:00,
2013-01-26 22:52:00,61.0,-99.9,30.24,ENE,59,0.0,0.0,-999,-99.99,,,-99.99,,2013-01-27 04:52:00,
2013-01-26 23:04:00,61.0,-99.9,30.24,North,-999,-999.0,-999.0,-999,-99.99,,,-99.99,,2013-01-27 05:04:00,
2013-01-26 23:12:00,60.0,-99.9,30.24,SE,145,3.0,3.0,-999,-99.99,,,-99.99,,2013-01-27 05:12:00,
2013-01-26 23:22:00,60.0,-99.9,30.24,SE,146,2.0,3.0,-999,-99.99,,,-99.99,,2013-01-27 05:22:00,
2013-01-26 23:32:00,60.0,-99.9,30.24,SSE,147,2.0,3.0,-999,-99.99,,,-99.99,,2013-01-27 05:32:00,
2013-01-26 23:42:00,60.0,-99.9,30.24,SE,132,2.0,3.0,-999,-99.99,,,-99.99,,2013-01-27 05:42:00,
2013-01-26 23:52:00,60.0,-99.9,30.24,SE,134,2.0,2.0,-999,-99.99,,,-99.99,,2013-01-27 05:52:00,